Location: ?????oe
(44.4874°N, 135.7046°E)
Time: 03:52:26
(UTC+00:00)

Cosmos 2333 Rocket - Pass Details

Date: 13 December 2025
Orbit: 837 x 865 km, 70.8° (Epoch: 12 January)

Event Time Altitude Azimuth Distance (km) Brightness Sun altitude
Exits shadow 18:55:43 34° 63° (ENE) 1,377 3.6 -36.4°
Drops below altitude 10° 19:00:31 10° 119° (ESE) 2,490 5.2 -35.6°
Sets 19:03:11 0° 128° (SE) 3,418 6.0 -35.1°
